Regional Weather Roundup
Issued by NWS Spokane, WA

Home | Current Version | Previous Version | Text Only | Print | Product List | Glossary On
Versions: 1 2 3 4 5 6 7 8 9 10 11 12 13 14 15 16 17 18 19 20 21 22 23 24 25 26 27 28 29 30 31 32 33 34 35 36 37 38 39 40 41 42 43 44 45 46 47 48 49 50
000
NZUS01 KOTX 310610
RWROTX
EASTERN WASHINGTON/NORTHERN IDAHO ROUNDUP
NATIONAL WEATHER SERVICE, SPOKANE WA
1100 PM PDT THU OCT 30 2014

Note: "fair" indicated few or no clouds below 12,000 feet with no
significant weather and/or obstructions to visibility.

...NORTHEAST WASHINGTON AND NORTHERN IDAHO PANHANDLE...

CITY           SKY/WX    TMP DP  RH WIND       PRES   REMARKS
SPOKANE INTL   CLOUDY    49  43  80 NE10      29.81F
SPOKANE DOWNTO CLOUDY    49  44  83 CALM      29.82F
COEUR D ALENE    N/A    N/A N/A N/A MISG        N/A
DEER PARK      CLOUDY    50  43  77 N10       29.82F
SANDPOINT      CLOUDY    46  43  87 NE13      29.87F

...SOUTHEAST WASHINGTON AND SOUTHERN IDAHO PANHANDLE...

CITY           SKY/WX    TMP DP  RH WIND       PRES   REMARKS
WALLA WALLA    CLOUDY    52  50  93 SW7       29.81R FOG
PULLMAN/MOSCOW CLOUDY    56  44  64 E15       29.82F
LEWISTON       CLOUDY    56  47  71 SE5       29.79F
LOWELL           N/A     49  47  93 N5        29.91F

...COLUMBIA BASIN...

CITY           SKY/WX    TMP DP  RH WIND       PRES   REMARKS
EPHRATA        CLOUDY    53  47  79 N9        29.79F
MOSES LAKE     CLOUDY    52  46  80 N12       29.80F
TRI CITIES     CLOUDY    52  51  97 CALM      29.80F
HERMISTON      CLOUDY    53  49  86 S6        29.81S
PENDLETON      CLOUDY    49  47  93 NW5       29.82R FOG

...EAST SLOPES CASCADES...

CITY           SKY/WX    TMP DP  RH WIND       PRES   REMARKS
THE DALLES     LGT RAIN  55  54  94 CALM      29.82R FOG
YAKIMA         LGT RAIN  53  51  93 SW7       29.82F FOG
ELLENSBURG     LGT RAIN  51  48  89 NW5       29.80F FOG
WENATCHEE      LGT RAIN  50  47  89 W6        29.83F FOG
OMAK           LGT RAIN  48  47  96 CALM      29.83F FOG

...SOUTHERN BRITISH COLUMBIA...

CITY           SKY/WX    TMP DP  RH WIND       PRES   REMARKS
PENTICTON      CLOUDY    52  48  87 S21G29    29.78F

...WESTERN MONTANA...

CITY           SKY/WX    TMP DP  RH WIND       PRES   REMARKS
MISSOULA       MOCLDY    40  38  93 CALM      30.00F

...NEIGHBORING CITIES...

CITY           SKY/WX    TMP DP  RH WIND       PRES   REMARKS
SEATTLE        LGT RAIN  54  52  93 S6        29.78F
CALGARY        MOCLDY    41  34  75 S10       29.84F



USA.gov is the U.S. government's official web portal to all federal, state and local government web resources and services.